This demonstration page uses our WeatherBlox Daily Observations layout. Learn more.

Left ArrowRight Arrow

Hourly Observations for July 5, 2018

Temp ( °F °C ) Dew Point ( °F °C ) Humidity (%) Winds ( mph kmh ) Pressure ( in mb ) Visibility ( mi km ) Precip ( " mm )
12:16 am 00:16 Clear 73 23 73 23 100 100 N N/A 30.24 1024 10 16.0934 N/A
12:37 am 00:37 Clear 73 23 73 23 100 100 N N/A 30.24 1024 10 16.0934 N/A
12:56 am 00:56 Clear 73 23 73 23 100 100 N N/A 30.24 1024 7 11.26538 N/A
1:16 am 01:16 Clear 73 23 73 23 100 100 N N/A 30.24 1024 5 8.0467 N/A
1:37 am 01:37 Clear 73 23 73 23 100 100 N N/A 30.24 1024 7 11.26538 N/A
1:56 am 01:56 Clear 73 23 73 23 100 100 N N/A 30.24 1024 5 8.0467 N/A
2:16 am 02:16 Clear 72 22 72 22 100 100 N N/A 30.24 1024 4 6.43736 N/A
2:37 am 02:37 Clear 73 23 73 23 100 100 N N/A 30.24 1024 3 4.82802 N/A
2:56 am 02:56 Mostly Cloudy 72 22 72 22 100 100 N N/A 30.24 1024 1.5 2.41401 N/A
3:17 am 03:17 Clear 72 22 72 22 100 100 N N/A 30.24 1024 2 3.21868 N/A
3:36 am 03:36 Mostly Cloudy 72 22 72 22 100 100 N N/A 30.21 1023 1.25 2.011675 N/A
3:56 am 03:56 Mostly Cloudy 72 22 72 22 100 100 N N/A 30.21 1023 1 1.60934 N/A
4:17 am 04:17 Clear 73 23 73 23 100 100 N N/A 30.18 1022 2 3.21868 N/A
4:36 am 04:36 Clear 73 23 73 23 100 100 N N/A 30.18 1022 2.5 4.02335 N/A
4:56 am 04:56 Clear 73 23 73 23 100 100 S 6 9 30.18 1022 4 6.43736 N/A
5:17 am 05:17 Clear 73 23 73 23 100 100 S 5 7 30.18 1022 5 8.0467 N/A
5:36 am 05:36 Clear 75 24 75 24 100 100 SSW 5 7 30.18 1022 5 8.0467 N/A
5:56 am 05:56 Clear 72 22 72 22 100 100 N N/A 30.21 1023 2.5 4.02335 N/A
6:17 am 06:17 Clear 73 23 73 23 100 100 N N/A 30.18 1022 3 4.82802 N/A
6:36 am 06:36 Sunny 73 23 73 23 100 100 N N/A 30.24 1024 3 4.82802 N/A
6:57 am 06:57 Mostly Cloudy 72 22 72 22 100 100 N N/A 30.24 1024 1.5 2.41401 N/A
7:16 am 07:16 Mostly Cloudy 73 23 73 23 100 100 N N/A 30.24 1024 1.75 2.816345 N/A
7:36 am 07:36 Mostly Cloudy 73 23 73 23 100 100 N N/A 30.24 1024 1.5 2.41401 N/A
7:57 am 07:57 Sunny 75 24 75 24 100 100 N N/A 30.24 1024 3 4.82802 N/A
8:16 am 08:16 Sunny 77 25 77 25 100 100 N N/A 30.24 1024 4 6.43736 N/A
8:37 am 08:37 Sunny 79 26 79 26 100 100 N N/A 30.24 1024 5 8.0467 N/A
8:56 am 08:56 Sunny 81 27 81 27 100 100 N N/A 30.24 1024 4 6.43736 N/A
9:16 am 09:16 Sunny 82 28 81 27 94 94 N N/A 30.24 1024 5 8.0467 N/A
9:37 am 09:37 Sunny 84 29 81 27 89 89 W 3 6 30.24 1024 7 11.26538 N/A
9:56 am 09:56 Sunny 84 29 81 27 89 89 NW 5 7 30.24 1024 7 11.26538 N/A
10:16 am 10:16 Sunny 86 30 81 27 84 84 WNW 3 6 30.24 1024 7 11.26538 N/A
10:37 am 10:37 Sunny 86 30 81 27 84 84 N N/A 30.24 1024 10 16.0934 N/A
10:56 am 10:56 Sunny 86 30 79 26 79 79 WNW 5 7 30.24 1024 10 16.0934 N/A
11:17 am 11:17 Sunny 88 31 81 27 79 79 WSW 3 6 30.21 1023 10 16.0934 N/A
11:36 am 11:36 Partly Cloudy 88 31 79 26 75 75 WSW 5 7 30.21 1023 10 16.0934 N/A
11:56 am 11:56 Partly Cloudy 90 32 79 26 71 71 N N/A 30.21 1023 10 16.0934 N/A
12:17 pm 12:17 Sunny 90 32 79 26 71 71 W 6 9 30.21 1023 10 16.0934 N/A
12:36 pm 12:36 Partly Cloudy 90 32 79 26 71 71 N N/A 30.21 1023 10 16.0934 N/A
12:56 pm 12:56 Sunny 90 32 79 26 71 71 WNW 7 11 30.21 1023 10 16.0934 N/A
1:17 pm 13:17 Mostly Cloudy 79 26 75 24 89 89 N 25 41 30.24 1024 10 16.0934 N/A
1:36 pm 13:36 Cloudy 73 23 73 23 100 100 N 18 30 30.27 1025 2 3.21868 N/A
1:56 pm 13:56 Partly Cloudy 73 23 73 23 100 100 NNW 5 7 30.27 1025 10 16.0934 N/A
2:17 pm 14:17 Sunny 73 23 73 23 100 100 N N/A 30.27 1025 10 16.0934 N/A
2:36 pm 14:36 Partly Cloudy 73 23 73 23 100 100 N N/A 30.27 1025 10 16.0934 N/A
2:56 pm 14:56 Partly Cloudy 75 24 75 24 100 100 N N/A 30.24 1024 10 16.0934 N/A
3:17 pm 15:17 Mostly Cloudy 75 24 75 24 100 100 NW 5 7 30.21 1023 10 16.0934 N/A
3:36 pm 15:36 Partly Cloudy 75 24 75 24 100 100 WNW 5 7 30.21 1023 10 16.0934 N/A
3:56 pm 15:56 Sunny 75 24 75 24 100 100 W 7 11 30.21 1023 10 16.0934 N/A
4:16 pm 16:16 Partly Cloudy 75 24 75 24 100 100 WNW 9 15 30.24 1024 10 16.0934 N/A
4:36 pm 16:36 Mostly Cloudy 73 23 73 23 100 100 W 10 17 30.27 1025 7 11.26538 N/A
4:57 pm 16:57 Cloudy 73 23 73 23 100 100 W 8 13 30.24 1024 10 16.0934 N/A
5:16 pm 17:16 Cloudy 73 23 73 23 100 100 W 9 15 30.24 1024 10 16.0934 N/A
5:36 pm 17:36 Cloudy 73 23 73 23 100 100 W 6 9 30.24 1024 10 16.0934 N/A
5:57 pm 17:57 Mostly Cloudy 73 23 73 23 100 100 NW 3 6 30.24 1024 10 16.0934 N/A
6:16 pm 18:16 Partly Cloudy 73 23 73 23 100 100 W 3 6 30.24 1024 10 16.0934 N/A
6:36 pm 18:36 Partly Cloudy 73 23 73 23 100 100 N N/A 30.18 1022 10 16.0934 N/A
6:57 pm 18:57 Partly Cloudy 75 24 75 24 100 100 N N/A 30.18 1022 10 16.0934 N/A
7:16 pm 19:16 Sunny 75 24 75 24 100 100 NW 3 6 30.18 1022 10 16.0934 N/A
7:37 pm 19:37 Sunny 75 24 75 24 100 100 NNW 3 6 30.18 1022 10 16.0934 N/A
7:57 pm 19:57 Sunny 75 24 75 24 100 100 N N/A 30.18 1022 10 16.0934 N/A
8:16 pm 20:16 Sunny 75 24 75 24 100 100 NNW 3 6 30.18 1022 10 16.0934 N/A
8:37 pm 20:37 Sunny 73 23 73 23 100 100 WNW 6 9 30.18 1022 10 16.0934 N/A
8:56 pm 20:56 Sunny 73 23 73 23 100 100 N N/A 30.18 1022 10 16.0934 N/A
9:16 pm 21:16 Clear 73 23 73 23 100 100 W 5 7 30.18 1022 10 16.0934 N/A
9:37 pm 21:37 Clear 73 23 73 23 100 100 N N/A 30.18 1022 10 16.0934 N/A
9:56 pm 21:56 Clear 73 23 73 23 100 100 N N/A 30.18 1022 10 16.0934 N/A
10:16 pm 22:16 Clear 72 22 72 22 100 100 NE 5 7 30.21 1023 10 16.0934 N/A
10:37 pm 22:37 Clear 72 22 72 22 100 100 N N/A 30.21 1023 10 16.0934 N/A
10:56 pm 22:56 Clear 72 22 72 22 100 100 SSW 3 6 30.21 1023 7 11.26538 N/A
11:16 pm 23:16 Clear 72 22 72 22 100 100 N N/A 30.24 1024 10 16.0934 N/A
11:36 pm 23:36 Clear 72 22 72 22 100 100 N N/A 30.24 1024 10 16.0934 N/A
11:56 pm 23:56 Clear 72 22 72 22 100 100 N N/A 30.24 1024 10 16.0934 N/A

Powered by AerisWeather